STARLINK-1523, 46028

Orbit data source: Space-Track

STARLINK-1523, 46028 is a payload satellite owned by SpaceX/Seattle (US) in LEO that was launched on Fri, 07 Aug 2020 UTC via an FALCON 9 launch vehicle from the Air Force Eastern Test Range (AFETR). Payload-class satellites include a variety of spacecraft equipped with specific instruments for various scientific and technological missions. These include communications satellites like Starlink; space stations such as the ISS; scientific satellites like the Hubble; Earth observation satellites from companies like Planet Labs, Umbra, and HawkEye 360; GPS; miniature CubeSats for education and research; and military/defense satellites.

Loading next visibility...
Identifier
46028, 2020-055B
Orbit
LEO
Country
Flag of USUS
Related business
Manufacturer
SpaceX/Seattle
Mission
Operational Commercial Communications
Bus & Motor
STARLINK, Unknown motor
Mass
260 kg wet, ~248 kg dry
Launch date (UTC)
2020-08-07 (6 years ago)
Launch vehicle
FALCON 9
Launch site
Air Force Eastern Test Range (AFETR)
Object type
Payload
Rocket body
Debris
Shape & HBR
Box + 1 Pan, 10.1 m
Radar Cross Section
13.562 m², Large (>1 m²)

Expand to show TLE details & history
Last TLE update: 8 hours ago

TLE from 8 hours ago
0 STARLINK-1523
1 46028U 20055B   26125.67268394  .00003169  00000-0  11908-3 0  9994
2 46028  53.1618 222.0245 0001268  75.3450 284.7692 15.30199093317621
Epoch: 2026-05-05T16:08Z
TLE epoch observation values (Epoch: 2026-05-05T16:08:39.892Z)
Latitude
0.00004°
Longitude
116.31415°
Altitude
475.896 km
Speed
7.629 km/s
True Right ascension
14h 48m 05s
True Declination
0° 00' 00"
Sunlit
Object was in full shadow at epoch
Visualization orbit readout
Latitude
Unknown
Longitude
Unknown
Altitude
Unknown
Speed
Unknown
Apparent Right ascension
Unknown
Apparent Declination
Unknown
Sunlit
N/A
Visualization observer readout
Local Sidereal Time
08:06:15
Azimuth
Unknown
Elevation
Unknown
Doppler factor
Unknown
Orbital elements
Apogee altitude
476.343 km
Perigee altitude
474.605 km
Semi-major axis
6,853.611 km
Eccentricity
0.00013
Inclination
53.1618°
RAAN
222.0245°
Arg. of periapsis
75.345°
True anomaly
284.75515°
Mean anomaly
284.7692°
Eccentric anomaly
284.76217°
Mean motion
3.82529 °/min
Orbital period
94.11 mins
BSTAR
0.00011908
Loading maneuver chart data...
Computing Atmospheric mass density...
Loading historical data...
Loading historical data...
Loading historical data...
Loading historical data...
Loading historical data...
Loading historical data...
Loading historical data...

Documentation

Showing up to 5 results
|